Location: Góry Miechowskie
(50.3599°N, 20.1803°E)
Time: 16:21:40
(UTC+00:00)

Courier 1B Rocket - Pass Details

Date: 15 September 2024
Orbit: 920 x 1201 km, 28.3° (Epoch: 11 October)

Event Time Altitude Azimuth Distance (km) Brightness Sun altitude
Rises 16:10:20 0° 226° (SW) 3,773 8.9 5.9°
Reaches altitude 10° 16:15:30 10° 194° (SSW) 2,901 7.7 5.0°
Maximum altitude 16:17:22 11° 178° (S) 2,845 7.5 4.7°
Drops below altitude 10° 16:19:16 10° 163° (SSE) 2,957 7.4 4.4°
Sets 16:24:43 0° 131° (SE) 3,989 7.7 3.6°
